• MPC Preparation (Info)

  • MPEC 2023-R17 : 2023 RC

    The following Minor Planet Electronic Circular may be linked-to from your own Web pages, but must not otherwise be redistributed electronically.

    A form allowing access to any MPEC is at the bottom of this page.


    Read MPEC 2023-R16 Read MPEC 2023-R18


    M.P.E.C. 2023-R17                             Issued 2023 September 6, 00:33 UT
    
         The Minor Planet Electronic Circulars contain information on unusual
             minor planets, routine data on comets and natural satellites,
             and occasional editorial announcements.  They are published
        on behalf of Division F of the International Astronomical Union by the
              Minor Planet Center, Smithsonian Astrophysical Observatory,
                              Cambridge, MA 02138, U.S.A.
    			  
                 Prepared using the Tamkin Foundation Computer Network
    
                                  MPC@CFA.HARVARD.EDU
                URL https://www.minorplanetcenter.net/    ISSN 1523-6714
    
                                     2023 RC                                 
    
    
    Observations:
         K23R00C* C2023 09 04.37124221 11 52.757+03 16 44.76         20.07iXER017F52
         K23R00C  C2023 09 04.38305121 11 52.633+03 15 14.59         19.78iXER017F52
         K23R00C  C2023 09 04.39490321 11 52.515+03 13 44.25         20.25iXER017F52
         K23R00C  C2023 09 04.40672021 11 52.394+03 12 13.92         19.79iXER017F52
         K23R00C  C2023 09 04.49304621 11 51.872+03 01 16.85         19.82GVER017F51
         K23R00C  C2023 09 04.49386021 11 51.865+03 01 10.52         19.90GVER017F51
         K23R00C KC2023 09 04.82206121 12 02.53 +02 19 36.0          20.0 GVER017L01
         K23R00C KC2023 09 04.82374321 12 02.51 +02 19 23.4          19.8 GVER017L01
         K23R00C KC2023 09 04.82879421 12 02.48 +02 18 45.1          19.7 GVER017L01
         K23R00C KB2023 09 04.83626721 12 03.19 +02 17 50.2          20.0 GVER017I93
         K23R00C KB2023 09 04.83644 21 12 02.95 +02 17 49.4          20.3 VZER017C95
         K23R00C KB2023 09 04.84996021 12 03.25 +02 16 08.5          20.9 GVER017I93
         K23R00C KB2023 09 04.85234 21 12 02.96 +02 15 50.8          20.0 VZER017C95
         K23R00C KC2023 09 04.85903021 12 02.44 +02 14 55.1          19.7 RVER017K61
         K23R00C KC2023 09 04.86060521 12 02.46 +02 14 43.6          19.0 RVER017K61
         K23R00C KB2023 09 04.86097521 12 03.26 +02 14 45.8          20.2 GVER017I93
         K23R00C KC2023 09 04.86202221 12 02.44 +02 14 32.9          19.5 RVER017K61
         K23R00C KC2023 09 04.86344121 12 02.44 +02 14 22.7          19.5 RVER017K61
         K23R00C KC2023 09 04.86533121 12 02.40 +02 14 08.4          19.4 RVER017K61
         K23R00C KB2023 09 04.86823 21 12 02.95 +02 13 52.0          20.2 VZER017C95
         K23R00C KC2023 09 04.87012021 12 03.154+02 13 31.84         20.3 GVER017J95
         K23R00C KC2023 09 04.87494721 12 03.170+02 12 55.58         19.7 GVER017J95
         K23R00C KC2023 09 04.87962521 12 03.187+02 12 21.35         19.9 GVER017J95
         K23R00C KB2023 09 04.96622521 12 06.082+02 02 57.55         20.2 GXER017Y05
         K23R00C KB2023 09 04.98090721 12 06.031+02 01 09.08         19.7 GXER017Y05
         K23R00C KB2023 09 04.99559321 12 05.892+01 59 20.36         19.4 GXER017Y05
         K23R00C KC2023 09 05.09403221 12 08.01 +01 46 05.6          20.4 VuER017H21
         K23R00C KC2023 09 05.10463921 12 08.00 +01 44 47.5          20.0 VuER017H21
         K23R00C KC2023 09 05.10656721 12 07.99 +01 44 33.2          20.4 VuER017H21
         K23R00C KC2023 09 05.10888221 12 07.99 +01 44 16.0          20.1 VuER017H21
         K23R00C KC2023 09 05.15033021 12 09.07 +01 39 15.5          20.4 GXER017858
         K23R00C KC2023 09 05.15694521 12 09.06 +01 38 27.2          20.2 GXER017858
         K23R00C KC2023 09 05.16379521 12 09.06 +01 37 36.9          19.9 GXER017858
         K23R00C KC2023 09 05.22457 21 12 09.16 +01 30 15.2          20.2 RVER017691
         K23R00C KC2023 09 05.22923 21 12 09.14 +01 29 41.5          20.0 RVER017691
         K23R00C KC2023 09 05.80430621 12 22.50 +00 20 29.4                VER017104
         K23R00C KC2023 09 05.81037 21 12 22.53 +00 19 44.3                VER017204
         K23R00C KC2023 09 05.81197321 12 22.32 +00 19 33.5          19.9 GXER017595
         K23R00C KC2023 09 05.81475421 12 22.49 +00 19 12.3          20.2 GVER017L06
         K23R00C KC2023 09 05.81743221 12 22.48 +00 18 55.8          19.3 GVER017104
         K23R00C KC2023 09 05.81913521 12 22.55 +00 18 41.4          19.7 GVER017L06
         K23R00C KC2023 09 05.82003821 12 22.32 +00 18 36.0          19.8 GXER017595
         K23R00C KC2023 09 05.82210 21 12 22.56 +00 18 21.1          20.1 GVER017204
         K23R00C KC2023 09 05.82351621 12 22.52 +00 18 10.2          20.2 GVER017L06
         K23R00C KC2023 09 05.82835721 12 22.35 +00 17 37.2          19.7 GXER017595
         K23R00C HC2023 09 05.83440 21 12 22.60 +00 16 54.0                VER017204
         K23R00C KB2023 09 05.83679 21 12 22.46 +00 16 30.6          19.7 GVER017L65
         K23R00C KC2023 09 05.84711121 12 23.018+00 15 19.69         20.1 GVER017J95
         K23R00C KC2023 09 05.85346821 12 23.050+00 14 34.26         19.9 GVER017J95
         K23R00C KB2023 09 05.86339 21 12 22.57 +00 13 22.9          19.6 GVER017L65
         K23R00C KB2023 09 05.88999 21 12 22.66 +00 10 15.4          19.5 GVER017L65
         K23R00C KC2023 09 05.90267921 12 22.59 +00 08 53.0          19.9 GVER017M60
         K23R00C KC2023 09 05.90861021 12 22.59 +00 08 11.7          20.3 GVER017M60
         K23R00C KC2023 09 05.91182121 12 22.61 +00 07 48.7          20.3 GVER017M60
    
    Observer details:
    104 San Marcello Pistoiese.  Observers P. Bacci, M. Maestripieri.  Measurers
        P. Bacci, L. Tesi, G. Fagioli.  0.60-m F4 Reflector + CCD.
    204 Schiaparelli Observatory.  Observers L. Buzzi, G. Galli.  0.84-m f/3.5
        reflector + CCD.
    595 Farra d'Isonzo.  Observers G. Panterotto, E. Pettarin.  Measurer E.
        Pettarin.  0.61-m f/4.5 reflector + CCD.
    691 Steward Observatory, Kitt Peak-Spacewatch.  Observer T. H. Bressi.  0.9-m
        f/3 reflector + CCD.
    858 Tebbutt Observatory, Edgewood.  Observer F. B. Zoltowski.  0.51-m f/8.1
        Schmidt-Cassegrain + CCD.
    C95 SATINO Remote Observatory, Haute Provence.  Observer D. Husar.  0.30-m
        f/5.8 reflector + CMO.
    F51 Pan-STARRS 1, Haleakala.  Observers J. Bulger, K. Chambers, T. Lowe, P.
        Minguez, A. Schultz, I. Smith.  Measurers S. Chastel, J. Fairlamb, M.
        Huber, Y. Ramanjooloo, R. Wainscoat, R. Weryk.  1.8-m Ritchey-Chretien +
        CCD.
    F52 Pan-STARRS 2, Haleakala.  Observers J. Bulger, T. Lowe, P. Minguez, A.
        Schultz, I. Smith.  Measurers K. Chambers, T. de Boer, J. Bulger, J.
        Fairlamb, H. Gao, M. Huber, C.-C. Lin, T. Lowe, E. Magnier, P. Minguez, Y.
        Ramanjooloo, A. Schultz, I. Smith, R. Wainscoat, R. Weryk.  1.8-m Ritchey-
        Chretien + CCD.
    H21 Astronomical Research Observatory, Westfield.  Observer R. Holmes.
        Measurers T. Linder, R. Holmes, L. Horn.  0.76-m f/3.0 astrograph + CCD.
    I93 St Pardon de Conques.  Observer F. Losse.  0.40-m f/3.7 reflector + CMO.
    J95 Great Shefford.  Observer P. Birtwhistle.  0.41-m f/6.3 Schmidt-Cassegrain
        + CCD.
    K61 Rokycany Observatory.  Observer M. Adamovsky.  0.51-m f/6.8 reflector +
        CCD.
    L01 Visnjan Observatory, Tican.  Observers K. Korlevic, I. Lyon.  Measurer K.
        Korlevic.  1.0-m f/2.9 reflector + CCD.
    L06 Sormano 2 Observatory, Bellagio Via Lattea.  Observers E. Valli, G.
        Ventre.  Measurer P. Sicoli.  0.36m Schmidt Cassegrain + CCD.
    L65 Bredenkamp Observatory, Bremen.  Observer H. Duin.  0.23-m f/6.3 reflector
        + CMO.
    M60 Virgil Observatory, Loiano.  Observer A. Carbognani.  0.30-m f/4.0
        Reflector + CCD.
    Y05 SONEAR Wykrota-CEAMIG, Serra da Piedade.  Observers C. Jacques, A.
        Caetano, E. Pimentel.  Measurer C. Jacques.  0.45-m f/2.9 reflector + CMO.
    
    Orbital elements:
    2023 RC                                                  Earth MOID = 0.1013 AU
    Epoch 2023 Sept. 13.0 TT = JDT 2460200.5                Veres                   
    M 123.57712              (2000.0)            P               Q                  
    n   1.00967309     Peri.   34.70692     -0.91842139     +0.39304090             
    a   0.9840463      Node   168.18132     -0.39408395     -0.89901635             
    e   0.2352723      Incl.   12.67930     -0.03464101     -0.19310217             
    P   0.98           H   23.31          G   0.15           U   8                  
    Residuals in seconds of arc
    230904 F52  0.1+  0.1-    230904 K61  0.4-  0.8-    230905 204  0.1-  0.2+
    230904 F52  0.1+  0.1-    230904 C95  0.2+  0.6-    230905 595  0.1+  0.8+
    230904 F52  0.1+  0.0     230904 J95  0.0   0.2-    230905 L06  0.5-  0.6-
    230904 F52  0.0   0.2-    230904 J95  0.2+  0.5-    230905 104  0.5-  0.2+
    230904 F51  0.0   0.2+    230904 J95  0.3+  0.1+    230905 L06  0.1+  0.5-
    230904 F51  0.0   0.0     230904 Y05  0.1+  0.0     230905 595  0.2-  0.5+
    230904 L01  0.2+  0.6+    230904 Y05  0.6+  0.2+    230905 204  0.3-  0.2+
    230904 L01  0.1-  0.5+    230904 Y05  0.0   0.1+    230905 L06  0.6-  0.6-
    230904 L01  0.5-  0.1-    230905 H21  0.2-  0.3+    230905 595  0.1-  0.6+
    230904 I93  0.9-  0.3+    230905 H21  0.2-  0.2+    230905 204  0.2-  0.2+
    230904 C95  0.3-  0.1+    230905 H21  0.3-  0.1+    230905 L65  0.2+  0.7-
    230904 I93  0.1-  0.5+    230905 H21  0.3-  0.1-    230905 J95  0.3+  0.3+
    230904 C95  0.0   0.1-    230905 858  0.3-  0.3-    230905 J95  0.3+  0.2-
    230904 K61  0.2+  1.0-    230905 858  0.2-  0.1-    230905 L65  0.0   0.2-
    230904 K61  0.5+  0.8-    230905 858  0.1+  0.1-    230905 L65  0.3-  0.2+
    230904 I93  0.0   0.2-    230905 691  0.3-  0.2-    230905 M60  0.0   0.4+
    230904 K61  0.2+  0.9-    230905 691  0.3-  0.1+    230905 M60  0.0   0.9+
    230904 K61  0.2+  0.5-    230905 104  0.4+  0.8+    230905 M60  0.3+  0.5+
    
    Ephemeris:
    2023 RC                  a,e,i = 0.98, 0.24, 13                  q = 0.7525
    Date    TT    R. A. (2000) Decl.     Delta      r    Elong.  Phase     V
    2023 08 07    21 27 43.9 +73 16 07   0.1273  1.0223    90.0    82.8    21.8
    ...
    2023 08 22    21 12 01.7 +38 46 22   0.1018  1.0771   127.9    47.9    20.3
    ...
    2023 08 30    21 10 54.7 +16 08 02   0.1087  1.1033   147.7    29.3    20.0
    ...
    2023 09 05    21 12 04.5 +01 58 28   0.1248  1.1213   153.2    23.9    20.2
    2023 09 06    21 12 24.8 -00 01 39   0.1283  1.1242   153.1    23.9    20.2
    2023 09 07    21 12 47.6 -01 55 32   0.1320  1.1270   152.8    24.1    20.3
    ...
    2023 09 13    21 15 55.2 -11 17 00   0.1575  1.1430   148.0    27.8    20.8
    ...
    2023 09 21    21 22 17.0 -19 24 05   0.1986  1.1621   139.3    34.3    21.5
    ...
    2023 10 06    21 39 48.9 -26 40 23   0.2883  1.1902   125.3    43.3    22.7
    
    M. P. C. Staff               (C) Copyright 2023 MPC           M.P.E.C. 2023-R17
    


    Read MPEC 2023-R16 Read MPEC 2023-R18


    MPEC number:

    Enter an MPEC number in one of the following forms:

    • 1997-B01 (the full form)
    • J97B01 (the packed version of the full form)
    • B01 (the abbreviated form)